Regional Weather Roundup
Issued by NWS Newport/Morehead, NC

Current Version | Previous Version | Text Only | Print | Product List | Glossary Off
Versions: 1 2 3 4 5 6 7 8 9 10 11 12 13 14 15 16 17 18 19 20 21 22 23 24 25 26 27 28 29 30 31 32 33 34 35 36 37 38 39 40 41 42 43 44 45 46 47 48 49 50
000 ASUS42 KMHX 222325 RWRMHX WEATHER ROUNDUP FOR EASTERN NORTH CAROLINA NATIONAL WEATHER SERVICE NEWPORT/MOREHEAD CITY NC 700 PM EDT WED MAR 22 2017 NOTE: "FAIR" INDICATES FEW OR NO CLOUDS BELOW 12,000 FEET WITH NO SIGNIFICANT WEATHER AND/OR OBSTRUCTIONS TO VISIBILITY NCZ015>017-031-032-045>047-102-103-230000- NORTH COAST CITY SKY/WX TMP DP RH WIND PRES REMARKS EDENTON CLEAR 49 19 29 NE7 30.31R ELIZABETH CITY CLEAR 47 24 40 N15 30.30R KITTY HAWK NOT AVBL MANTEO CLEAR 44 26 48 NE15 30.31R $$ NCZ045>047-081-094-103-104-230000- CENTRAL COAST CITY SKY/WX TMP DP RH WIND PRES REMARKS FRISCO PTCLDY 46 26 45 N14G23 30.29R $$ NCZ095-097-098-100-101-230000- SOUTHERN COAST CITY SKY/WX TMP DP RH WIND PRES REMARKS BEAUFORT CLEAR 49 30 48 NE14G25 30.26R CEDAR ISLAND NOT AVBL JACKSONVILLE CLEAR 57 25 29 N15 30.22R PINEY ISLAND CLEAR N/A N/A N/A NE21G32 30.26R WILMINGTON CLOUDY 56 46 69 E9 30.20R $$ NCZ011>013-027>030-043-044-078>080-089-090>093-098-230000- COASTAL PLAIN CITY SKY/WX TMP DP RH WIND PRES REMARKS AHOSKIE NOT AVBL CLINTON CLEAR 57 27 31 NE10G18 30.25R ELIZABETHTOWN MOCLDY 60 39 46 CALM 30.21R GOLDSBORO CLEAR 55 21 26 NE12 30.24R GREENVILLE CLEAR 50 19 29 NE9 30.29R HAVELOCK CLEAR 50 32 50 NE16 30.27R KENANSVILLE CLEAR 55 25 30 NE6 30.25R KINSTON CLEAR 54 16 22 NE9G17 30.27R NEW BERN CLEAR 54 19 25 N13 30.26R RICHLANDS CLEAR 55 26 32 N10 30.24R ROCKY MOUNT CLEAR 52 15 23 NE8 30.28R WASHINGTON CLEAR 50 20 31 N8 30.28R WHITEVILLE CLOUDY 61 42 49 NE6 30.20R $$ AMZ130-135-150-152-154-156-158-170-250-252-270-ANZ085-086-088-633-658-670-230000- MARINE OBSERVATIONS STATION/POSITION TIME TEMP WIND PRES WAVE SWELL AIR SEA DIR/SP/G HT/PER HT/PER (UTC) (F) (DEG/KT/KT) (MB) (FT/S) (FT/S) CHESAPEAKE LIGHT NOT AVBL 64 E VA BEACH 2250 44 50 10/ 19/ 23 1024.9 9/ 8 DUCK 2300 45 49 10/ 18/ 25 1025.2 2 E DUCK 2300 47 N/A 7/ 7 2/11 OREGON INLET 2300 45 52 360/ 19/ 23 1025.8 13E OREGON INLT NOT AVBL HATTERAS CG 2300 46 56 10/ 22/ 26 1025.5 DIAMOND BUOY 2250 48 74 10/ 25/ 35 1024.5 10/10 CAPE LOOKOUT 2300 50 40/ 25/ 27 1024.4 BEAUFORT LAB 2300 49 53 50/ 10/ 22 1023.8 30 SE NEW RVR IN 2308 53 70/ 23/ 29 1023.6 30 SE NEW RVR IN 2313 64 N/A 8/11 3/11 27 SE WRIGHTSVLE 2308 55 64 100/ 21/ 31 1022.2 5 SE WRIGHTSVLE 2308 54 57 90/ 17/ 31 1023.3 225 S CAPE HAT 2250 67 75 20/ 25/ 31 1018.1 8/ 7 7/ 7 41 SE CHARLESTON 2250 64 66 70/ 19/ 21 1020.0 6/ 6 2/11 $$

USA.gov is the U.S. government's official web portal to all federal, state and local government web resources and services.